Location: Ferintosh
(52.7647°N, 112.9692°W)
Time: 06:54:21
(UTC+00:00)

BlueWalker 3 - Visible Passes

Search period start: 05 June 2023 00:00
Search period end: 15 June 2023 00:00
Orbit: 494 x 513 km, 53.2° (Epoch: 04 June)

Date Brightness Start Highest point End Pass type
(mag) Time Alt. Az. Time Alt. Az. Time Alt. Az.
05 Jun 2.0 04:56:45 10° W 05:00:37 82° N 05:04:30 10° E visible
05 Jun 1.8 06:35:19 10° WNW 06:39:10 70° SSW 06:42:49 11° ESE visible
05 Jun 3.1 08:14:09 10° W 08:17:17 23° SW 08:17:27 23° SW visible
06 Jun 2.0 04:36:21 10° W 04:40:12 82° N 04:44:06 10° E visible
06 Jun 1.9 06:14:54 10° WNW 06:18:45 69° SSW 06:22:18 12° ESE visible
06 Jun 3.2 07:53:46 10° W 07:56:52 23° SW 07:56:57 23° SW visible
07 Jun 1.9 05:54:29 10° WNW 05:58:20 68° SSW 06:01:56 12° ESE visible
07 Jun 3.2 07:33:22 10° W 07:36:25 22° SW 07:36:36 22° SW visible
08 Jun 1.9 05:34:03 10° WNW 05:37:54 67° SSW 05:41:42 10° ESE visible
08 Jun 3.3 07:12:57 10° W 07:15:58 22° SW 07:16:21 22° SSW visible
09 Jun 2.0 05:13:37 10° WNW 05:17:26 67° SSW 05:21:18 10° ESE visible
09 Jun 3.3 06:52:31 10° W 06:55:30 21° SW 06:56:11 21° SSW visible
10 Jun 2.0 04:53:09 10° WNW 04:56:59 66° SSW 05:00:50 10° ESE visible
10 Jun 3.4 06:32:05 10° W 06:35:02 21° SW 06:36:04 19° SSW visible
11 Jun 3.5 06:11:38 10° W 06:14:33 21° SW 06:15:59 17° S visible
12 Jun 3.6 05:51:11 10° W 05:54:03 20° SW 05:55:58 15° S visible
13 Jun 3.7 05:30:42 10° W 05:33:34 20° SW 05:35:58 12° S visible
14 Jun 3.7 05:10:14 10° W 05:13:03 19° SW 05:15:52 10° S visible
